Tabellarische Ansicht des 18.9.2019


Die einzelnen Werte des Tages

Uhrzeit Temperatur Luftdruck Luftfeuchte Wind Hi-Wind Taupunkt THW Index Wind Chill Heat Index Solar- strahlung Regen

00:00

10.2 C

1018.8 hpa

80 %

11.3 km/h aus 117

20.9 km/h aus WSW

6.9 C

8.7 C

8.7 C

10.2 C

0 W/m

0.00 mm

00:05

10.2 C

1018.8 hpa

80 %

11.3 km/h aus 115

19.3 km/h aus WSW

6.9 C

8.7 C

8.7 C

10.2 C

0 W/m

0.00 mm

00:10

10.1 C

1018.8 hpa

80 %

8.0 km/h aus 113

17.7 km/h aus WSW

6.8 C

9.1 C

9.1 C

10.1 C

0 W/m

0.00 mm

00:15

10.2 C

1019.1 hpa

80 %

9.7 km/h aus 115

20.9 km/h aus WSW

6.9 C

8.9 C

8.9 C

10.2 C

0 W/m

0.00 mm

00:20

10.2 C

1019.1 hpa

81 %

11.3 km/h aus 117

22.5 km/h aus WSW

7.1 C

8.7 C

8.7 C

10.2 C

0 W/m

0.00 mm

00:25

10.2 C

1019.1 hpa

81 %

11.3 km/h aus 116

19.3 km/h aus WSW

7.1 C

8.7 C

8.7 C

10.2 C

0 W/m

0.00 mm

00:30

10.2 C

1019.1 hpa

81 %

11.3 km/h aus 117

20.9 km/h aus WSW

7.1 C

8.7 C

8.7 C

10.2 C

0 W/m

0.00 mm

00:35

10.2 C

1019.1 hpa

81 %

12.9 km/h aus 118

20.9 km/h aus W

7.1 C

8.3 C

8.3 C

10.2 C

0 W/m

0.00 mm

00:40

10.2 C

1019.1 hpa

80 %

11.3 km/h aus 114

24.1 km/h aus WSW

6.9 C

8.7 C

8.7 C

10.2 C

0 W/m

0.00 mm

00:45

10.2 C

1019.2 hpa

80 %

9.7 km/h aus 115

17.7 km/h aus WSW

6.9 C

9.0 C

9.0 C

10.2 C

0 W/m

0.00 mm

00:50

10.2 C

1019.2 hpa

80 %

9.7 km/h aus 117

17.7 km/h aus W

6.9 C

8.9 C

8.9 C

10.2 C

0 W/m

0.00 mm

00:55

10.1 C

1019.2 hpa

80 %

9.7 km/h aus 117

17.7 km/h aus WSW

6.8 C

8.8 C

8.8 C

10.1 C

0 W/m

0.00 mm

01:00

10.1 C

1019.2 hpa

80 %

8.0 km/h aus 117

14.5 km/h aus WSW

6.8 C

9.1 C

9.1 C

10.1 C

0 W/m

0.00 mm

01:05

10.0 C

1019.2 hpa

80 %

8.0 km/h aus 115

17.7 km/h aus WSW

6.7 C

9.0 C

9.0 C

10.0 C

0 W/m

0.00 mm

01:10

9.9 C

1019.2 hpa

81 %

9.7 km/h aus 115

20.9 km/h aus WSW

6.8 C

8.7 C

8.7 C

9.9 C

0 W/m

0.00 mm

01:15

9.9 C

1019.3 hpa

81 %

8.0 km/h aus 116

17.7 km/h aus W

6.8 C

8.9 C

8.9 C

9.9 C

0 W/m

0.00 mm

01:20

9.8 C

1019.3 hpa

81 %

9.7 km/h aus 116

19.3 km/h aus WSW

6.7 C

8.5 C

8.5 C

9.8 C

0 W/m

0.00 mm

01:25

9.8 C

1019.3 hpa

81 %

9.7 km/h aus 117

22.5 km/h aus WSW

6.7 C

8.5 C

8.5 C

9.8 C

0 W/m

0.00 mm

01:30

9.8 C

1019.2 hpa

81 %

9.7 km/h aus 115

17.7 km/h aus WNW

6.7 C

8.4 C

8.4 C

9.8 C

0 W/m

0.00 mm

01:35

9.7 C

1019.2 hpa

81 %

9.7 km/h aus 114

19.3 km/h aus WSW

6.6 C

8.4 C

8.4 C

9.7 C

0 W/m

0.00 mm

01:40

9.7 C

1019.2 hpa

82 %

8.0 km/h aus 117

16.1 km/h aus NW

6.7 C

8.6 C

8.6 C

9.7 C

0 W/m

0.00 mm

01:45

9.7 C

1019.4 hpa

82 %

6.4 km/h aus 116

12.9 km/h aus W

6.7 C

9.0 C

9.0 C

9.7 C

0 W/m

0.00 mm

01:50

9.6 C

1019.4 hpa

82 %

6.4 km/h aus 117

9.7 km/h aus SW

6.7 C

8.9 C

8.9 C

9.6 C

0 W/m

0.00 mm

01:55

9.6 C

1019.4 hpa

82 %

6.4 km/h aus 117

17.7 km/h aus WSW

6.6 C

8.8 C

8.8 C

9.6 C

0 W/m

0.00 mm

02:00

9.5 C

1019.3 hpa

82 %

8.0 km/h aus 115

17.7 km/h aus SW

6.6 C

8.4 C

8.4 C

9.5 C

0 W/m

0.00 mm

02:05

9.4 C

1019.3 hpa

82 %

6.4 km/h aus 115

11.3 km/h aus WSW

6.5 C

8.7 C

8.7 C

9.4 C

0 W/m

0.00 mm

02:10

9.4 C

1019.3 hpa

82 %

8.0 km/h aus 115

17.7 km/h aus W

6.5 C

8.3 C

8.3 C

9.4 C

0 W/m

0.00 mm

02:15

9.4 C

1019.4 hpa

83 %

9.7 km/h aus 117

17.7 km/h aus WSW

6.6 C

8.0 C

8.0 C

9.4 C

0 W/m

0.00 mm

02:20

9.3 C

1019.4 hpa

83 %

8.0 km/h aus 117

16.1 km/h aus SW

6.6 C

8.2 C

8.2 C

9.3 C

0 W/m

0.00 mm

02:25

9.3 C

1019.4 hpa

83 %

6.4 km/h aus 117

14.5 km/h aus WNW

6.5 C

8.6 C

8.6 C

9.3 C

0 W/m

0.00 mm

02:30

9.3 C

1019.6 hpa

83 %

9.7 km/h aus 115

19.3 km/h aus WSW

6.5 C

7.8 C

7.8 C

9.3 C

0 W/m

0.00 mm

02:35

9.3 C

1019.6 hpa

83 %

9.7 km/h aus 114

22.5 km/h aus WSW

6.5 C

7.8 C

7.8 C

9.3 C

0 W/m

0.00 mm

02:40

9.3 C

1019.6 hpa

83 %

9.7 km/h aus 118

16.1 km/h aus W

6.5 C

7.8 C

7.8 C

9.3 C

0 W/m

0.00 mm

02:45

9.3 C

1019.6 hpa

84 %

11.3 km/h aus 117

20.9 km/h aus W

6.7 C

7.6 C

7.6 C

9.3 C

0 W/m

0.00 mm

02:50

9.3 C

1019.6 hpa

84 %

9.7 km/h aus 117

17.7 km/h aus W

6.8 C

7.9 C

7.9 C

9.3 C

0 W/m

0.00 mm

02:55

9.3 C

1019.6 hpa

84 %

6.4 km/h aus 117

9.7 km/h aus WSW

6.8 C

8.6 C

8.6 C

9.3 C

0 W/m

0.00 mm

03:00

9.4 C

1019.6 hpa

84 %

6.4 km/h aus 114

14.5 km/h aus WNW

6.8 C

8.7 C

8.7 C

9.4 C

0 W/m

0.00 mm

03:05

9.4 C

1019.6 hpa

84 %

8.0 km/h aus 115

14.5 km/h aus WSW

6.8 C

8.3 C

8.3 C

9.4 C

0 W/m

0.00 mm

03:10

9.4 C

1019.6 hpa

84 %

6.4 km/h aus 117

14.5 km/h aus WSW

6.8 C

8.7 C

8.7 C

9.4 C

0 W/m

0.00 mm

03:15

9.4 C

1019.6 hpa

84 %

9.7 km/h aus 116

19.3 km/h aus WSW

6.8 C

8.1 C

8.0 C

9.4 C

0 W/m

0.00 mm

03:20

9.4 C

1019.6 hpa

84 %

8.0 km/h aus 117

19.3 km/h aus WSW

6.8 C

8.3 C

8.3 C

9.4 C

0 W/m

0.00 mm

03:25

9.3 C

1019.6 hpa

84 %

8.0 km/h aus 115

14.5 km/h aus WSW

6.8 C

8.2 C

8.2 C

9.3 C

0 W/m

0.00 mm

03:30

9.3 C

1019.6 hpa

84 %

8.0 km/h aus 114

16.1 km/h aus WNW

6.8 C

8.2 C

8.2 C

9.3 C

0 W/m

0.00 mm

03:35

9.3 C

1019.6 hpa

84 %

8.0 km/h aus 117

16.1 km/h aus WSW

6.7 C

8.2 C

8.2 C

9.3 C

0 W/m

0.00 mm

03:40

9.3 C

1019.6 hpa

84 %

8.0 km/h aus 116

11.3 km/h aus WSW

6.7 C

8.2 C

8.2 C

9.3 C

0 W/m

0.00 mm

03:45

9.2 C

1019.6 hpa

84 %

6.4 km/h aus 116

11.3 km/h aus WSW

6.7 C

8.5 C

8.5 C

9.2 C

0 W/m

0.00 mm

03:50

9.2 C

1019.6 hpa

84 %

4.8 km/h aus 116

11.3 km/h aus W

6.6 C

8.9 C

8.9 C

9.2 C

0 W/m

0.00 mm

03:55

9.2 C

1019.6 hpa

85 %

6.4 km/h aus 115

16.1 km/h aus WSW

6.8 C

8.4 C

8.4 C

9.2 C

0 W/m

0.00 mm

04:00

9.1 C

1019.8 hpa

85 %

8.0 km/h aus 115

14.5 km/h aus WSW

6.7 C

7.9 C

7.9 C

9.1 C

0 W/m

0.00 mm

04:05

9.1 C

1019.8 hpa

85 %

6.4 km/h aus 114

17.7 km/h aus WSW

6.7 C

8.3 C

8.3 C

9.1 C

0 W/m

0.00 mm

04:10

9.1 C

1019.8 hpa

85 %

4.8 km/h aus 115

14.5 km/h aus SW

6.7 C

8.7 C

8.7 C

9.1 C

0 W/m

0.00 mm

04:15

9.1 C

1019.9 hpa

85 %

6.4 km/h aus 116

14.5 km/h aus WSW

6.7 C

8.3 C

8.3 C

9.1 C

0 W/m

0.00 mm

04:20

9.0 C

1019.9 hpa

85 %

6.4 km/h aus 117

11.3 km/h aus W

6.6 C

8.2 C

8.2 C

9.0 C

0 W/m

0.00 mm

04:25

8.9 C

1019.9 hpa

85 %

4.8 km/h aus 115

9.7 km/h aus W

6.6 C

8.6 C

8.6 C

8.9 C

0 W/m

0.00 mm

04:30

8.9 C

1020.1 hpa

85 %

4.8 km/h aus 114

11.3 km/h aus WSW

6.6 C

8.6 C

8.6 C

8.9 C

0 W/m

0.00 mm

04:35

8.9 C

1020.1 hpa

85 %

4.8 km/h aus 115

9.7 km/h aus WSW

6.5 C

8.6 C

8.6 C

8.9 C

0 W/m

0.00 mm

04:40

8.8 C

1020.1 hpa

86 %

4.8 km/h aus 116

8.0 km/h aus W

6.6 C

8.5 C

8.5 C

8.8 C

0 W/m

0.00 mm

04:45

8.8 C

1020.1 hpa

86 %

4.8 km/h aus 117

9.7 km/h aus WSW

6.6 C

8.4 C

8.4 C

8.8 C

0 W/m

0.00 mm

04:50

8.8 C

1020.1 hpa

85 %

3.2 km/h aus 116

8.0 km/h aus SW

6.4 C

8.8 C

8.8 C

8.8 C

0 W/m

0.00 mm

04:55

8.7 C

1020.1 hpa

86 %

4.8 km/h aus 114

9.7 km/h aus SW

6.5 C

8.4 C

8.4 C

8.7 C

0 W/m

0.00 mm

05:00

8.7 C

1020.2 hpa

86 %

3.2 km/h aus 115

8.0 km/h aus SW

6.5 C

8.7 C

8.7 C

8.7 C

0 W/m

0.00 mm

05:05

8.6 C

1020.2 hpa

86 %

4.8 km/h aus 117

8.0 km/h aus SSW

6.4 C

8.2 C

8.2 C

8.6 C

0 W/m

0.00 mm

05:10

8.6 C

1020.2 hpa

86 %

4.8 km/h aus 117

14.5 km/h aus W

6.3 C

8.2 C

8.2 C

8.6 C

0 W/m

0.00 mm

05:15

8.6 C

1020.2 hpa

86 %

4.8 km/h aus 117

12.9 km/h aus SW

6.3 C

8.2 C

8.2 C

8.6 C

0 W/m

0.00 mm

05:20

8.5 C

1020.2 hpa

86 %

4.8 km/h aus 117

9.7 km/h aus WSW

6.3 C

8.1 C

8.1 C

8.5 C

0 W/m

0.00 mm

05:25

8.5 C

1020.2 hpa

86 %

4.8 km/h aus 114

9.7 km/h aus SW

6.3 C

8.1 C

8.1 C

8.5 C

0 W/m

0.00 mm

05:30

8.4 C

1020.2 hpa

86 %

3.2 km/h aus 116

8.0 km/h aus WSW

6.2 C

8.4 C

8.4 C

8.4 C

0 W/m

0.00 mm

05:35

8.4 C

1020.2 hpa

86 %

4.8 km/h aus 117

8.0 km/h aus WSW

6.2 C

8.1 C

8.1 C

8.4 C

0 W/m

0.00 mm

05:40

8.4 C

1020.2 hpa

87 %

6.4 km/h aus 117

16.1 km/h aus WSW

6.3 C

7.6 C

7.5 C

8.4 C

0 W/m

0.00 mm

05:45

8.4 C

1020.3 hpa

87 %

3.2 km/h aus 117

9.7 km/h aus SW

6.3 C

8.4 C

8.4 C

8.4 C

0 W/m

0.00 mm

05:50

8.3 C

1020.3 hpa

87 %

3.2 km/h aus 116

8.0 km/h aus SW

6.3 C

8.4 C

8.3 C

8.4 C

0 W/m

0.00 mm

05:55

8.3 C

1020.3 hpa

87 %

4.8 km/h aus 114

9.7 km/h aus SW

6.3 C

8.0 C

7.9 C

8.4 C

0 W/m

0.00 mm

06:00

8.3 C

1020.3 hpa

87 %

4.8 km/h aus 116

8.0 km/h aus W

6.3 C

8.0 C

7.9 C

8.4 C

0 W/m

0.00 mm

06:05

8.3 C

1020.3 hpa

87 %

4.8 km/h aus 116

11.3 km/h aus SSW

6.2 C

7.9 C

7.9 C

8.3 C

0 W/m

0.00 mm

06:10

8.2 C

1020.3 hpa

87 %

4.8 km/h aus 116

11.3 km/h aus SW

6.2 C

7.9 C

7.8 C

8.3 C

0 W/m

0.00 mm

06:15

8.2 C

1020.5 hpa

87 %

4.8 km/h aus 117

9.7 km/h aus SW

6.1 C

7.8 C

7.8 C

8.2 C

0 W/m

0.00 mm

06:20

8.2 C

1020.5 hpa

87 %

4.8 km/h aus 116

8.0 km/h aus SW

6.1 C

7.8 C

7.8 C

8.2 C

0 W/m

0.00 mm

06:25

8.2 C

1020.5 hpa

87 %

4.8 km/h aus 115

8.0 km/h aus WSW

6.1 C

7.8 C

7.8 C

8.2 C

0 W/m

0.00 mm

06:30

8.1 C

1020.6 hpa

88 %

4.8 km/h aus 115

8.0 km/h aus SW

6.2 C

7.8 C

7.7 C

8.2 C

0 W/m

0.00 mm

06:35

8.1 C

1020.6 hpa

88 %

3.2 km/h aus 116

4.8 km/h aus WSW

6.2 C

8.2 C

8.1 C

8.2 C

0 W/m

0.00 mm

06:40

8.1 C

1020.6 hpa

88 %

4.8 km/h aus 117

9.7 km/h aus SW

6.2 C

7.7 C

7.7 C

8.1 C

0 W/m

0.00 mm

06:45

8.0 C

1020.7 hpa

87 %

4.8 km/h aus 117

8.0 km/h aus SSW

6.0 C

7.6 C

7.6 C

8.1 C

0 W/m

0.00 mm

06:50

7.9 C

1020.7 hpa

87 %

4.8 km/h aus 115

9.7 km/h aus SSW

5.9 C

7.6 C

7.5 C

8.0 C

5 W/m

0.00 mm

06:55

7.8 C

1020.7 hpa

88 %

3.2 km/h aus 114

8.0 km/h aus SSW

6.0 C

7.9 C

7.8 C

7.9 C

8 W/m

0.00 mm

07:00

7.8 C

1020.8 hpa

88 %

4.8 km/h aus 117

8.0 km/h aus SW

5.9 C

7.4 C

7.3 C

7.8 C

11 W/m

0.00 mm

07:05

7.7 C

1020.8 hpa

88 %

3.2 km/h aus 117

4.8 km/h aus SSW

5.9 C

7.8 C

7.7 C

7.8 C

16 W/m

0.00 mm

07:10

7.7 C

1020.8 hpa

88 %

4.8 km/h aus 116

8.0 km/h aus SW

5.8 C

7.3 C

7.2 C

7.7 C

19 W/m

0.00 mm

07:15

7.7 C

1020.9 hpa

88 %

4.8 km/h aus 117

6.4 km/h aus WSW

5.8 C

7.3 C

7.2 C

7.7 C

25 W/m

0.00 mm

07:20

7.7 C

1020.9 hpa

88 %

3.2 km/h aus 117

6.4 km/h aus SW

5.8 C

7.7 C

7.7 C

7.7 C

28 W/m

0.00 mm

07:25

7.6 C

1020.9 hpa

88 %

3.2 km/h aus 114

6.4 km/h aus SW

5.7 C

7.6 C

7.6 C

7.6 C

32 W/m

0.00 mm

07:30

7.7 C

1021.1 hpa

88 %

4.8 km/h aus 116

8.0 km/h aus SW

5.8 C

7.3 C

7.2 C

7.7 C

32 W/m

0.00 mm

07:35

7.7 C

1021.1 hpa

88 %

4.8 km/h aus 117

8.0 km/h aus SW

5.8 C

7.3 C

7.2 C

7.7 C

34 W/m

0.00 mm

07:40

7.8 C

1021.1 hpa

88 %

4.8 km/h aus 117

8.0 km/h aus SW

5.9 C

7.4 C

7.3 C

7.8 C

40 W/m

0.00 mm

07:45

7.8 C

1021.2 hpa

89 %

4.8 km/h aus 117

9.7 km/h aus SW

6.1 C

7.4 C

7.4 C

7.9 C

46 W/m

0.00 mm

07:50

7.9 C

1021.2 hpa

89 %

4.8 km/h aus 116

8.0 km/h aus SW

6.2 C

7.5 C

7.4 C

7.9 C

45 W/m

0.00 mm

07:55

8.0 C

1021.2 hpa

89 %

4.8 km/h aus 114

9.7 km/h aus WSW

6.3 C

7.6 C

7.6 C

8.1 C

46 W/m

0.00 mm

08:00

8.1 C

1021.4 hpa

89 %

3.2 km/h aus 116

8.0 km/h aus WSW

6.4 C

8.1 C

8.1 C

8.1 C

50 W/m

0.00 mm

08:05

8.2 C

1021.4 hpa

89 %

3.2 km/h aus 118

8.0 km/h aus WSW

6.5 C

8.2 C

8.2 C

8.2 C

59 W/m

0.00 mm

08:10

8.2 C

1021.4 hpa

89 %

4.8 km/h aus 117

8.0 km/h aus SW

6.5 C

7.9 C

7.8 C

8.3 C

63 W/m

0.00 mm

08:15

8.3 C

1021.5 hpa

89 %

4.8 km/h aus 117

8.0 km/h aus SW

6.6 C

8.0 C

7.9 C

8.4 C

81 W/m

0.00 mm

08:20

8.4 C

1021.5 hpa

89 %

3.2 km/h aus 116

8.0 km/h aus SW

6.7 C

8.5 C

8.4 C

8.5 C

150 W/m

0.00 mm

08:25

8.6 C

1021.5 hpa

89 %

4.8 km/h aus 115

11.3 km/h aus SW

6.9 C

8.3 C

8.2 C

8.7 C

154 W/m

0.00 mm

08:30

8.8 C

1021.7 hpa

89 %

3.2 km/h aus 116

6.4 km/h aus SW

7.1 C

8.9 C

8.8 C

8.9 C

125 W/m

0.00 mm

08:35

9.0 C

1021.7 hpa

89 %

6.4 km/h aus 117

11.3 km/h aus SW

7.3 C

8.3 C

8.2 C

9.1 C

115 W/m

0.00 mm

08:40

9.2 C

1021.7 hpa

89 %

4.8 km/h aus 116

12.9 km/h aus SW

7.5 C

9.1 C

8.9 C

9.3 C

164 W/m

0.00 mm

08:45

9.8 C

1021.9 hpa

88 %

4.8 km/h aus 117

11.3 km/h aus SSW

7.9 C

9.7 C

9.6 C

9.9 C

280 W/m

0.00 mm

08:50

11.3 C

1021.9 hpa

81 %

4.8 km/h aus 115

14.5 km/h aus W

8.2 C

11.2 C

11.3 C

11.2 C

335 W/m

0.00 mm

08:55

11.7 C

1021.9 hpa

78 %

8.0 km/h aus 115

11.3 km/h aus WNW

8.0 C

10.8 C

11.0 C

11.5 C

166 W/m

0.00 mm

09:00

11.6 C

1022.1 hpa

77 %

9.7 km/h aus 117

19.3 km/h aus W

7.7 C

10.4 C

10.6 C

11.4 C

127 W/m

0.00 mm

09:05

11.5 C

1022.1 hpa

77 %

9.7 km/h aus 116

16.1 km/h aus WSW

7.6 C

10.2 C

10.4 C

11.3 C

122 W/m

0.00 mm

09:10

11.6 C

1022.1 hpa

78 %

9.7 km/h aus 118

16.1 km/h aus W

7.8 C

10.3 C

10.6 C

11.3 C

169 W/m

0.00 mm

09:15

11.7 C

1022.2 hpa

77 %

8.0 km/h aus 115

16.1 km/h aus W

7.8 C

10.7 C

10.9 C

11.4 C

196 W/m

0.00 mm

09:20

11.8 C

1022.2 hpa

77 %

8.0 km/h aus 115

14.5 km/h aus W

7.9 C

10.8 C

11.1 C

11.6 C

158 W/m

0.00 mm

09:25

11.8 C

1022.2 hpa

76 %

11.3 km/h aus 116

17.7 km/h aus W

7.7 C

10.3 C

10.6 C

11.5 C

134 W/m

0.00 mm

09:30

11.7 C

1022.3 hpa

76 %

9.7 km/h aus 117

17.7 km/h aus W

7.6 C

10.4 C

10.7 C

11.4 C

134 W/m

0.00 mm

09:35

11.5 C

1022.3 hpa

77 %

6.4 km/h aus 117

16.1 km/h aus WSW

7.6 C

10.9 C

11.1 C

11.3 C

121 W/m

0.00 mm

09:40

12.1 C

1022.3 hpa

77 %

8.0 km/h aus 114

16.1 km/h aus W

8.1 C

11.2 C

11.4 C

11.8 C

429 W/m

0.00 mm

09:45

12.5 C

1022.3 hpa

74 %

9.7 km/h aus 115

19.3 km/h aus WSW

8.0 C

11.4 C

11.7 C

12.2 C

403 W/m

0.00 mm

09:50

12.5 C

1022.3 hpa

73 %

6.4 km/h aus 116

14.5 km/h aus SW

7.8 C

11.9 C

12.3 C

12.2 C

220 W/m

0.00 mm

09:55

12.7 C

1022.3 hpa

74 %

8.0 km/h aus 116

14.5 km/h aus WSW

8.1 C

11.8 C

12.2 C

12.3 C

309 W/m

0.00 mm

10:00

13.2 C

1022.4 hpa

72 %

6.4 km/h aus 116

11.3 km/h aus WSW

8.2 C

12.6 C

13.0 C

12.8 C

410 W/m

0.00 mm

10:05

13.6 C

1022.4 hpa

72 %

8.0 km/h aus 113

16.1 km/h aus W

8.6 C

12.8 C

13.2 C

13.2 C

382 W/m

0.00 mm

10:10

13.6 C

1022.4 hpa

69 %

11.3 km/h aus 114

17.7 km/h aus W

8.0 C

12.3 C

12.7 C

13.1 C

426 W/m

0.00 mm

10:15

13.7 C

1022.4 hpa

70 %

11.3 km/h aus 118

19.3 km/h aus W

8.3 C

12.4 C

12.9 C

13.3 C

442 W/m

0.00 mm

10:20

13.8 C

1022.4 hpa

68 %

8.0 km/h aus 117

16.1 km/h aus W

8.0 C

12.9 C

13.4 C

13.3 C

444 W/m

0.00 mm

10:25

13.9 C

1022.4 hpa

69 %

8.0 km/h aus 115

17.7 km/h aus WSW

8.3 C

13.2 C

13.6 C

13.5 C

455 W/m

0.00 mm

10:30

14.3 C

1022.3 hpa

68 %

11.3 km/h aus 115

20.9 km/h aus W

8.4 C

13.1 C

13.6 C

13.8 C

443 W/m

0.00 mm

10:35

14.3 C

1022.3 hpa

68 %

9.7 km/h aus 116

22.5 km/h aus WSW

8.4 C

13.3 C

13.8 C

13.8 C

506 W/m

0.00 mm

10:40

14.6 C

1022.3 hpa

67 %

9.7 km/h aus 117

17.7 km/h aus W

8.5 C

13.7 C

14.2 C

14.1 C

482 W/m

0.00 mm

10:45

14.4 C

1022.4 hpa

65 %

9.7 km/h aus 116

16.1 km/h aus WSW

7.9 C

13.4 C

14.0 C

13.9 C

305 W/m

0.00 mm

10:50

14.5 C

1022.4 hpa

65 %

11.3 km/h aus 116

19.3 km/h aus W

8.0 C

13.3 C

13.8 C

13.9 C

459 W/m

0.00 mm

10:55

14.9 C

1022.4 hpa

63 %

12.9 km/h aus 114

22.5 km/h aus W

8.0 C

13.4 C

14.0 C

14.3 C

472 W/m

0.00 mm

11:00

14.8 C

1022.6 hpa

64 %

11.3 km/h aus 116

22.5 km/h aus W

8.0 C

13.6 C

14.2 C

14.2 C

361 W/m

0.00 mm

11:05

14.4 C

1022.6 hpa

64 %

11.3 km/h aus 116

22.5 km/h aus W

7.7 C

13.2 C

13.8 C

13.8 C

349 W/m

0.00 mm

11:10

14.9 C

1022.6 hpa

63 %

12.9 km/h aus 117

24.1 km/h aus W

8.0 C

13.4 C

14.0 C

14.3 C

563 W/m

0.00 mm

11:15

15.3 C

1022.5 hpa

61 %

12.9 km/h aus 115

20.9 km/h aus SW

7.8 C

13.8 C

14.4 C

14.7 C

571 W/m

0.00 mm

11:20

15.3 C

1022.5 hpa

60 %

11.3 km/h aus 115

19.3 km/h aus SW

7.6 C

14.1 C

14.8 C

14.6 C

606 W/m

0.00 mm

11:25

14.8 C

1022.5 hpa

62 %

12.9 km/h aus 117

22.5 km/h aus WSW

7.6 C

13.1 C

13.8 C

14.1 C

232 W/m

0.00 mm

11:30

14.4 C

1022.4 hpa

62 %

11.3 km/h aus 117

22.5 km/h aus WNW

7.2 C

13.1 C

13.8 C

13.8 C

246 W/m

0.00 mm

11:35

14.4 C

1022.4 hpa

63 %

9.7 km/h aus 116

19.3 km/h aus W

7.4 C

13.3 C

13.9 C

13.8 C

223 W/m

0.00 mm

11:40

14.2 C

1022.4 hpa

64 %

8.0 km/h aus 115

17.7 km/h aus W

7.5 C

13.3 C

13.9 C

13.6 C

143 W/m

0.00 mm

11:45

14.1 C

1022.5 hpa

66 %

9.7 km/h aus 116

17.7 km/h aus W

7.8 C

13.0 C

13.6 C

13.5 C

154 W/m

0.00 mm

11:50

14.3 C

1022.5 hpa

66 %

9.7 km/h aus 117

16.1 km/h aus WSW

8.0 C

13.2 C

13.8 C

13.7 C

259 W/m

0.00 mm

11:55

14.3 C

1022.5 hpa

63 %

9.7 km/h aus 117

17.7 km/h aus W

7.4 C

13.3 C

13.9 C

13.7 C

290 W/m

0.00 mm

12:00

14.6 C

1022.4 hpa

62 %

8.0 km/h aus 115

16.1 km/h aus WNW

7.4 C

13.7 C

14.3 C

13.9 C

256 W/m

0.00 mm

12:05

14.6 C

1022.4 hpa

63 %

6.4 km/h aus 115

16.1 km/h aus WNW

7.6 C

14.0 C

14.6 C

14.0 C

242 W/m

0.00 mm

12:10

15.3 C

1022.4 hpa

62 %

8.0 km/h aus 117

17.7 km/h aus WSW

8.0 C

14.6 C

15.2 C

14.6 C

628 W/m

0.00 mm

12:15

15.6 C

1022.3 hpa

60 %

11.3 km/h aus 117

20.9 km/h aus W

7.9 C

14.4 C

15.2 C

14.9 C

499 W/m

0.00 mm

12:20

15.3 C

1022.3 hpa

58 %

14.5 km/h aus 118

24.1 km/h aus WNW

7.1 C

13.2 C

14.0 C

14.6 C

362 W/m

0.00 mm

12:25

15.2 C

1022.3 hpa

59 %

14.5 km/h aus 115

24.1 km/h aus W

7.2 C

13.1 C

13.8 C

14.4 C

176 W/m

0.00 mm

12:30

14.5 C

1022.4 hpa

59 %

16.1 km/h aus 116

24.1 km/h aus W

6.6 C

11.8 C

12.6 C

13.7 C

159 W/m

0.00 mm

12:35

14.9 C

1022.4 hpa

59 %

12.9 km/h aus 117

20.9 km/h aus W

7.0 C

13.2 C

14.0 C

14.2 C

586 W/m

0.00 mm

12:40

15.9 C

1022.4 hpa

59 %

14.5 km/h aus 116

22.5 km/h aus WSW

7.9 C

13.9 C

14.7 C

15.2 C

625 W/m

0.00 mm

12:45

16.2 C

1022.2 hpa

58 %

12.9 km/h aus 117

20.9 km/h aus W

7.9 C

14.7 C

15.4 C

15.4 C

544 W/m

0.00 mm

12:50

15.6 C

1022.2 hpa

55 %

14.5 km/h aus 115

24.1 km/h aus W

6.6 C

13.4 C

14.3 C

14.7 C

245 W/m

0.00 mm

12:55

15.6 C

1022.2 hpa

57 %

12.9 km/h aus 116

20.9 km/h aus WSW

7.1 C

13.9 C

14.7 C

14.7 C

260 W/m

0.00 mm

13:00

15.6 C

1022.2 hpa

58 %

8.0 km/h aus 117

16.1 km/h aus WNW

7.4 C

14.8 C

15.6 C

14.8 C

265 W/m

0.00 mm

13:05

16.5 C

1022.2 hpa

53 %

16.1 km/h aus 116

32.2 km/h aus W

6.9 C

14.0 C

14.9 C

15.6 C

637 W/m

0.00 mm

13:10

16.7 C

1022.2 hpa

50 %

19.3 km/h aus 115

25.7 km/h aus WNW

6.2 C

13.4 C

14.4 C

15.6 C

559 W/m

0.00 mm

13:15

16.3 C

1022.2 hpa

51 %

14.5 km/h aus 114

27.4 km/h aus WNW

6.1 C

14.1 C

15.1 C

15.2 C

330 W/m

0.00 mm

13:20

16.3 C

1022.2 hpa

52 %

11.3 km/h aus 117

20.9 km/h aus SW

6.4 C

15.1 C

16.1 C

15.3 C

628 W/m

0.00 mm

13:25

16.1 C

1022.2 hpa

54 %

8.0 km/h aus 117

19.3 km/h aus WNW

6.7 C

15.1 C

16.1 C

15.1 C

239 W/m

0.00 mm

13:30

15.5 C

1022.2 hpa

53 %

12.9 km/h aus 117

25.7 km/h aus WSW

6.0 C

13.7 C

14.7 C

14.5 C

158 W/m

0.00 mm

13:35

15.2 C

1022.2 hpa

54 %

9.7 km/h aus 113

16.1 km/h aus W

5.9 C

13.9 C

14.9 C

14.2 C

119 W/m

0.00 mm

13:40

15.1 C

1022.2 hpa

55 %

8.0 km/h aus 116

16.1 km/h aus NW

6.1 C

14.1 C

14.9 C

14.2 C

161 W/m

0.00 mm

13:45

15.3 C

1022.0 hpa

54 %

9.7 km/h aus 117

17.7 km/h aus NW

6.0 C

14.1 C

15.0 C

14.3 C

224 W/m

0.00 mm

13:50

15.2 C

1022.0 hpa

55 %

11.3 km/h aus 116

19.3 km/h aus W

6.2 C

13.8 C

14.7 C

14.3 C

148 W/m

0.00 mm

13:55

15.0 C

1022.0 hpa

56 %

12.9 km/h aus 117

22.5 km/h aus WSW

6.3 C

13.2 C

14.1 C

14.2 C

125 W/m

0.00 mm

14:00

14.9 C

1022.0 hpa

56 %

9.7 km/h aus 114

17.7 km/h aus W

6.2 C

13.8 C

14.6 C

14.1 C

132 W/m

0.00 mm

14:05

14.8 C

1022.0 hpa

56 %

12.9 km/h aus 117

22.5 km/h aus W

6.1 C

13.0 C

13.8 C

14.0 C

114 W/m

0.00 mm

14:10

14.8 C

1022.0 hpa

58 %

12.9 km/h aus 117

19.3 km/h aus WNW

6.6 C

13.0 C

13.8 C

14.0 C

187 W/m

0.00 mm

14:15

15.1 C

1022.0 hpa

58 %

9.7 km/h aus 117

16.1 km/h aus W

6.9 C

14.0 C

14.8 C

14.3 C

263 W/m

0.00 mm

14:20

15.2 C

1022.0 hpa

58 %

9.7 km/h aus 116

19.3 km/h aus NW

7.0 C

14.2 C

14.9 C

14.4 C

174 W/m

0.00 mm

14:25

15.1 C

1022.0 hpa

57 %

8.0 km/h aus 114

19.3 km/h aus NW

6.6 C

14.1 C

14.9 C

14.2 C

173 W/m

0.00 mm

14:30

15.2 C

1021.8 hpa

58 %

9.7 km/h aus 117

19.3 km/h aus NNW

7.0 C

14.1 C

14.9 C

14.4 C

237 W/m

0.00 mm

14:35

15.1 C

1021.8 hpa

58 %

11.3 km/h aus 116

20.9 km/h aus NW

6.9 C

13.8 C

14.6 C

14.3 C

203 W/m

0.00 mm

14:40

15.1 C

1021.8 hpa

58 %

9.7 km/h aus 117

19.3 km/h aus WNW

6.8 C

13.9 C

14.7 C

14.3 C

207 W/m

0.00 mm

14:45

15.2 C

1021.9 hpa

59 %

8.0 km/h aus 115

16.1 km/h aus WNW

7.2 C

14.3 C

15.1 C

14.4 C

207 W/m

0.00 mm

14:50

15.4 C

1021.9 hpa

60 %

6.4 km/h aus 115

11.3 km/h aus WSW

7.7 C

14.7 C

15.4 C

14.7 C

232 W/m

0.00 mm

14:55

15.7 C

1021.9 hpa

58 %

8.0 km/h aus 116

17.7 km/h aus WNW

7.4 C

14.9 C

15.7 C

14.9 C

264 W/m

0.00 mm

15:00

15.8 C

1021.8 hpa

55 %

16.1 km/h aus 116

27.4 km/h aus W

6.8 C

13.3 C

14.2 C

14.9 C

200 W/m

0.00 mm

15:05

15.3 C

1021.8 hpa

58 %

16.1 km/h aus 117

30.6 km/h aus WNW

7.1 C

12.8 C

13.6 C

14.5 C

160 W/m

0.00 mm

15:10

15.3 C

1021.8 hpa

58 %

16.1 km/h aus 115

27.4 km/h aus NW

7.1 C

12.8 C

13.6 C

14.5 C

303 W/m

0.00 mm

15:15

15.7 C

1022.0 hpa

56 %

16.1 km/h aus 116

24.1 km/h aus WNW

6.9 C

13.2 C

14.0 C

14.8 C

556 W/m

0.00 mm

15:20

15.9 C

1022.0 hpa

56 %

12.9 km/h aus 117

19.3 km/h aus WNW

7.2 C

14.3 C

15.2 C

15.1 C

488 W/m

0.00 mm

15:25

16.1 C

1022.0 hpa

53 %

14.5 km/h aus 116

27.4 km/h aus NW

6.5 C

13.9 C

14.9 C

15.1 C

378 W/m

0.00 mm

15:30

15.6 C

1022.0 hpa

53 %

14.5 km/h aus 117

22.5 km/h aus WNW

6.1 C

13.3 C

14.3 C

14.6 C

260 W/m

0.00 mm

15:35

15.9 C

1022.0 hpa

53 %

12.9 km/h aus 114

22.5 km/h aus WNW

6.4 C

14.2 C

15.2 C

14.9 C

552 W/m

0.00 mm

15:40

16.4 C

1022.0 hpa

52 %

9.7 km/h aus 117

17.7 km/h aus NW

6.6 C

15.4 C

16.4 C

15.4 C

492 W/m

0.00 mm

15:45

16.2 C

1021.8 hpa

53 %

11.3 km/h aus 117

19.3 km/h aus NW

6.6 C

15.0 C

15.9 C

15.3 C

474 W/m

0.00 mm

15:50

16.2 C

1021.8 hpa

54 %

11.3 km/h aus 116

20.9 km/h aus NNW

6.9 C

15.0 C

15.9 C

15.3 C

445 W/m

0.00 mm

15:55

16.4 C

1021.8 hpa

53 %

12.9 km/h aus 115

22.5 km/h aus WNW

6.8 C

14.8 C

15.8 C

15.5 C

438 W/m

0.00 mm

16:00

16.6 C

1021.7 hpa

50 %

14.5 km/h aus 115

24.1 km/h aus W

6.1 C

14.4 C

15.4 C

15.5 C

437 W/m

0.00 mm

16:05

16.4 C

1021.7 hpa

49 %

14.5 km/h aus 117

25.7 km/h aus W

5.7 C

14.2 C

15.3 C

15.3 C

462 W/m

0.00 mm

16:10

16.4 C

1021.7 hpa

49 %

16.1 km/h aus 117

24.1 km/h aus W

5.7 C

13.8 C

14.9 C

15.3 C

338 W/m

0.00 mm

16:15

16.1 C

1021.7 hpa

49 %

14.5 km/h aus 116

32.2 km/h aus WNW

5.3 C

13.7 C

14.9 C

14.9 C

146 W/m

0.00 mm

16:20

15.6 C

1021.7 hpa

51 %

16.1 km/h aus 115

24.1 km/h aus WNW

5.4 C

12.8 C

13.9 C

14.5 C

88 W/m

0.00 mm

16:25

15.3 C

1021.7 hpa

52 %

12.9 km/h aus 116

24.1 km/h aus W

5.5 C

13.4 C

14.4 C

14.3 C

117 W/m

0.00 mm

16:30

15.3 C

1021.7 hpa

54 %

12.9 km/h aus 116

19.3 km/h aus WNW

6.0 C

13.4 C

14.4 C

14.3 C

108 W/m

0.00 mm

16:35

15.2 C

1021.7 hpa

54 %

12.9 km/h aus 117

22.5 km/h aus W

6.0 C

13.4 C

14.3 C

14.3 C

85 W/m

0.00 mm

16:40

15.1 C

1021.7 hpa

56 %

9.7 km/h aus 117

22.5 km/h aus NW

6.4 C

13.9 C

14.8 C

14.3 C

94 W/m

0.00 mm

16:45

15.1 C

1021.7 hpa

58 %

8.0 km/h aus 114

17.7 km/h aus NW

6.9 C

14.2 C

15.0 C

14.3 C

124 W/m

0.00 mm

16:50

15.1 C

1021.7 hpa

58 %

6.4 km/h aus 117

11.3 km/h aus NW

6.8 C

14.3 C

15.1 C

14.3 C

110 W/m

0.00 mm

16:55

15.1 C

1021.7 hpa

59 %

6.4 km/h aus 117

14.5 km/h aus W

7.1 C

14.3 C

15.1 C

14.3 C

104 W/m

0.00 mm

17:00

15.1 C

1021.8 hpa

59 %

9.7 km/h aus 116

17.7 km/h aus NW

7.1 C

13.9 C

14.7 C

14.3 C

129 W/m

0.00 mm

17:05

15.1 C

1021.8 hpa

59 %

8.0 km/h aus 114

16.1 km/h aus NW

7.2 C

14.2 C

15.0 C

14.3 C

176 W/m

0.00 mm

17:10

15.0 C

1021.8 hpa

59 %

9.7 km/h aus 114

20.9 km/h aus NW

7.0 C

13.9 C

14.7 C

14.2 C

121 W/m

0.00 mm

17:15

14.8 C

1021.7 hpa

58 %

12.9 km/h aus 116

25.7 km/h aus NW

6.6 C

13.1 C

13.8 C

14.1 C

104 W/m

0.00 mm

17:20

14.7 C

1021.7 hpa

57 %

12.9 km/h aus 117

20.9 km/h aus NW

6.3 C

12.9 C

13.7 C

13.9 C

134 W/m

0.00 mm

17:25

14.7 C

1021.7 hpa

57 %

9.7 km/h aus 117

16.1 km/h aus NW

6.2 C

13.4 C

14.3 C

13.8 C

100 W/m

0.00 mm

17:30

14.7 C

1021.8 hpa

57 %

9.7 km/h aus 116

20.9 km/h aus W

6.3 C

13.5 C

14.3 C

13.9 C

95 W/m

0.00 mm

17:35

14.7 C

1021.8 hpa

59 %

11.3 km/h aus 115

19.3 km/h aus WNW

6.8 C

13.3 C

14.1 C

13.9 C

97 W/m

0.00 mm

17:40

14.7 C

1021.8 hpa

59 %

9.7 km/h aus 117

17.7 km/h aus NW

6.7 C

13.5 C

14.3 C

13.9 C

92 W/m

0.00 mm

17:45

14.6 C

1021.9 hpa

59 %

9.7 km/h aus 117

19.3 km/h aus NNW

6.7 C

13.4 C

14.2 C

13.8 C

66 W/m

0.00 mm

17:50

14.6 C

1021.9 hpa

60 %

8.0 km/h aus 117

16.1 km/h aus NNW

6.9 C

13.7 C

14.4 C

13.9 C

54 W/m

0.00 mm

17:55

14.6 C

1021.9 hpa

61 %

6.4 km/h aus 115

11.3 km/h aus NW

7.1 C

13.9 C

14.6 C

13.9 C

65 W/m

0.00 mm

18:00

14.5 C

1022.1 hpa

60 %

8.0 km/h aus 115

17.7 km/h aus NW

6.8 C

13.6 C

14.3 C

13.8 C

72 W/m

0.00 mm

18:05

14.4 C

1022.1 hpa

60 %

9.7 km/h aus 117

17.7 km/h aus WNW

6.8 C

13.3 C

14.0 C

13.7 C

71 W/m

0.00 mm

18:10

14.4 C

1022.1 hpa

61 %

6.4 km/h aus 117

11.3 km/h aus WNW

7.0 C

13.7 C

14.4 C

13.7 C

68 W/m

0.00 mm

18:15

14.3 C

1022.2 hpa

61 %

8.0 km/h aus 117

17.7 km/h aus WNW

6.9 C

13.4 C

14.1 C

13.7 C

61 W/m

0.00 mm

18:20

14.3 C

1022.2 hpa

60 %

8.0 km/h aus 114

16.1 km/h aus WNW

6.7 C

13.4 C

14.1 C

13.6 C

56 W/m

0.00 mm

18:25

14.3 C

1022.2 hpa

60 %

8.0 km/h aus 115

14.5 km/h aus W

6.6 C

13.3 C

14.0 C

13.6 C

56 W/m

0.00 mm

18:30

14.2 C

1022.2 hpa

60 %

8.0 km/h aus 117

16.1 km/h aus NW

6.6 C

13.2 C

13.9 C

13.5 C

52 W/m

0.00 mm

18:35

14.2 C

1022.2 hpa

60 %

8.0 km/h aus 117

16.1 km/h aus WNW

6.6 C

13.2 C

13.9 C

13.5 C

47 W/m

0.00 mm

18:40

14.2 C

1022.2 hpa

60 %

9.7 km/h aus 117

20.9 km/h aus W

6.5 C

12.9 C

13.7 C

13.4 C

40 W/m

0.00 mm

18:45

14.1 C

1022.3 hpa

61 %

9.7 km/h aus 116

19.3 km/h aus NNW

6.7 C

12.9 C

13.6 C

13.4 C

26 W/m

0.00 mm

18:50

14.0 C

1022.3 hpa

61 %

9.7 km/h aus 115

22.5 km/h aus NW

6.6 C

12.8 C

13.4 C

13.3 C

19 W/m

0.00 mm

18:55

13.9 C

1022.3 hpa

62 %

6.4 km/h aus 117

19.3 km/h aus WNW

6.8 C

13.3 C

13.9 C

13.3 C

19 W/m

0.00 mm

19:00

13.8 C

1022.3 hpa

62 %

9.7 km/h aus 116

20.9 km/h aus NNW

6.7 C

12.6 C

13.3 C

13.2 C

15 W/m

0.00 mm

19:05

13.8 C

1022.3 hpa

63 %

11.3 km/h aus 117

19.3 km/h aus NNW

6.9 C

12.4 C

13.0 C

13.2 C

13 W/m

0.00 mm

19:10

13.7 C

1022.3 hpa

64 %

8.0 km/h aus 115

17.7 km/h aus N

7.0 C

12.7 C

13.3 C

13.1 C

10 W/m

0.00 mm

19:15

13.6 C

1022.6 hpa

65 %

6.4 km/h aus 115

9.7 km/h aus WNW

7.1 C

12.9 C

13.5 C

13.0 C

6 W/m

0.00 mm

19:20

13.4 C

1022.6 hpa

65 %

8.0 km/h aus 117

11.3 km/h aus WNW

7.0 C

12.5 C

13.1 C

12.9 C

2 W/m

0.00 mm

19:25

13.3 C

1022.6 hpa

65 %

6.4 km/h aus 116

11.3 km/h aus NW

6.8 C

12.6 C

13.2 C

12.7 C

0 W/m

0.00 mm

19:30

13.2 C

1022.7 hpa

66 %

9.7 km/h aus 117

22.5 km/h aus NW

7.0 C

11.9 C

12.4 C

12.6 C

0 W/m

0.00 mm

19:35

13.1 C

1022.7 hpa

66 %

8.0 km/h aus 115

17.7 km/h aus NW

6.8 C

12.1 C

12.6 C

12.5 C

0 W/m

0.00 mm

19:40

12.9 C

1022.7 hpa

66 %

11.3 km/h aus 114

24.1 km/h aus WNW

6.7 C

11.3 C

11.9 C

12.3 C

0 W/m

0.00 mm

19:45

12.8 C

1022.9 hpa

67 %

11.3 km/h aus 116

20.9 km/h aus NW

6.9 C

11.3 C

11.8 C

12.3 C

0 W/m

0.00 mm

19:50

12.8 C

1022.9 hpa

67 %

11.3 km/h aus 117

20.9 km/h aus WNW

6.8 C

11.3 C

11.8 C

12.3 C

0 W/m

0.00 mm

19:55

12.7 C

1022.9 hpa

67 %

9.7 km/h aus 117

19.3 km/h aus WNW

6.7 C

11.4 C

11.9 C

12.2 C

0 W/m

0.00 mm

20:00

12.6 C

1023.2 hpa

68 %

12.9 km/h aus 115

25.7 km/h aus NW

6.8 C

10.6 C

11.1 C

12.1 C

0 W/m

0.00 mm

20:05

12.5 C

1023.2 hpa

68 %

9.7 km/h aus 114

20.9 km/h aus WNW

6.8 C

11.2 C

11.7 C

12.1 C

0 W/m

0.00 mm

20:10

12.4 C

1023.2 hpa

68 %

12.9 km/h aus 116

25.7 km/h aus WNW

6.6 C

10.5 C

10.9 C

11.9 C

0 W/m

0.00 mm

20:15

12.3 C

1023.3 hpa

69 %

9.7 km/h aus 117

17.7 km/h aus WNW

6.8 C

11.0 C

11.4 C

11.9 C

0 W/m

0.00 mm

20:20

12.3 C

1023.3 hpa

70 %

6.4 km/h aus 117

16.1 km/h aus W

7.0 C

11.6 C

12.0 C

11.9 C

0 W/m

0.00 mm

20:25

12.2 C

1023.3 hpa

71 %

6.4 km/h aus 116

14.5 km/h aus WNW

7.1 C

11.6 C

11.9 C

11.8 C

0 W/m

0.00 mm

20:30

12.2 C

1023.3 hpa

71 %

4.8 km/h aus 115

8.0 km/h aus WNW

7.1 C

11.8 C

12.2 C

11.8 C

0 W/m

0.00 mm

20:35

12.1 C

1023.3 hpa

71 %

3.2 km/h aus 115

6.4 km/h aus WNW

7.0 C

11.7 C

12.1 C

11.7 C

0 W/m

0.00 mm

20:40

12.0 C

1023.3 hpa

71 %

4.8 km/h aus 117

6.4 km/h aus WNW

6.9 C

11.6 C

12.0 C

11.6 C

0 W/m

0.00 mm

20:45

11.9 C

1023.3 hpa

71 %

4.8 km/h aus 117

8.0 km/h aus WNW

6.8 C

11.6 C

11.9 C

11.6 C

0 W/m

0.00 mm

20:50

11.8 C

1023.3 hpa

71 %

4.8 km/h aus 117

6.4 km/h aus WNW

6.7 C

11.4 C

11.8 C

11.4 C

0 W/m

0.00 mm

20:55

11.8 C

1023.3 hpa

72 %

3.2 km/h aus 116

6.4 km/h aus W

6.9 C

11.4 C

11.8 C

11.4 C

0 W/m

0.00 mm

21:00

11.7 C

1023.3 hpa

72 %

4.8 km/h aus 115

6.4 km/h aus W

6.8 C

11.3 C

11.7 C

11.3 C

0 W/m

0.00 mm

21:05

11.6 C

1023.3 hpa

72 %

4.8 km/h aus 117

8.0 km/h aus W

6.7 C

11.2 C

11.6 C

11.2 C

0 W/m

0.00 mm

21:10

11.4 C

1023.3 hpa

72 %

4.8 km/h aus 117

8.0 km/h aus W

6.5 C

11.1 C

11.4 C

11.1 C

0 W/m

0.00 mm

21:15

11.3 C

1023.4 hpa

73 %

4.8 km/h aus 117

8.0 km/h aus WNW

6.6 C

10.9 C

11.2 C

11.0 C

0 W/m

0.00 mm

21:20

11.2 C

1023.4 hpa

73 %

4.8 km/h aus 116

8.0 km/h aus W

6.5 C

10.8 C

11.1 C

10.9 C

0 W/m

0.00 mm

21:25

11.0 C

1023.4 hpa

73 %

6.4 km/h aus 114

9.7 km/h aus W

6.3 C

10.3 C

10.6 C

10.7 C

0 W/m

0.00 mm

21:30

10.8 C

1023.6 hpa

74 %

4.8 km/h aus 117

8.0 km/h aus W

6.4 C

10.6 C

10.8 C

10.6 C

0 W/m

0.00 mm

21:35

10.7 C

1023.6 hpa

74 %

4.8 km/h aus 117

6.4 km/h aus WNW

6.2 C

10.3 C

10.6 C

10.4 C

0 W/m

0.00 mm

21:40

10.6 C

1023.6 hpa

74 %

4.8 km/h aus 117

8.0 km/h aus W

6.1 C

10.3 C

10.4 C

10.4 C

0 W/m

0.00 mm

21:45

10.4 C

1023.8 hpa

75 %

4.8 km/h aus 116

9.7 km/h aus W

6.2 C

10.2 C

10.3 C

10.3 C

0 W/m

0.00 mm

21:50

10.3 C

1023.8 hpa

75 %

6.4 km/h aus 114

8.0 km/h aus W

6.1 C

9.6 C

9.8 C

10.2 C

0 W/m

0.00 mm

21:55

10.2 C

1023.8 hpa

76 %

4.8 km/h aus 113

8.0 km/h aus WNW

6.2 C

9.9 C

10.1 C

10.1 C

0 W/m

0.00 mm

22:00

10.1 C

1023.8 hpa

77 %

6.4 km/h aus 117

9.7 km/h aus W

6.3 C

9.4 C

9.5 C

10.1 C

0 W/m

0.00 mm

22:05

10.0 C

1023.8 hpa

77 %

4.8 km/h aus 117

8.0 km/h aus W

6.2 C

9.8 C

9.8 C

9.9 C

0 W/m

0.00 mm

22:10

9.9 C

1023.8 hpa

78 %

4.8 km/h aus 117

8.0 km/h aus WNW

6.3 C

9.7 C

9.8 C

9.9 C

0 W/m

0.00 mm

22:15

9.9 C

1023.8 hpa

78 %

4.8 km/h aus 116

8.0 km/h aus W

6.2 C

9.7 C

9.7 C

9.8 C

0 W/m

0.00 mm

22:20

9.8 C

1023.8 hpa

79 %

4.8 km/h aus 114

9.7 km/h aus WNW

6.4 C

9.6 C

9.6 C

9.8 C

0 W/m

0.00 mm

22:25

9.8 C

1023.8 hpa

79 %

4.8 km/h aus 115

8.0 km/h aus W

6.3 C

9.5 C

9.6 C

9.7 C

0 W/m

0.00 mm

22:30

9.7 C

1023.8 hpa

79 %

6.4 km/h aus 117

9.7 km/h aus W

6.2 C

8.9 C

9.0 C

9.6 C

0 W/m

0.00 mm

22:35

9.6 C

1023.8 hpa

79 %

4.8 km/h aus 117

8.0 km/h aus W

6.1 C

9.3 C

9.4 C

9.6 C

0 W/m

0.00 mm

22:40

9.6 C

1023.8 hpa

79 %

6.4 km/h aus 117

9.7 km/h aus W

6.1 C

8.8 C

8.8 C

9.5 C

0 W/m

0.00 mm

22:45

9.5 C

1024.0 hpa

80 %

4.8 km/h aus 116

9.7 km/h aus W

6.2 C

9.2 C

9.2 C

9.4 C

0 W/m

0.00 mm

22:50

9.4 C

1024.0 hpa

80 %

6.4 km/h aus 113

11.3 km/h aus W

6.2 C

8.7 C

8.7 C

9.4 C

0 W/m

0.00 mm

22:55

9.4 C

1024.0 hpa

80 %

6.4 km/h aus 116

9.7 km/h aus W

6.1 C

8.6 C

8.7 C

9.3 C

0 W/m

0.00 mm

23:00

9.3 C

1024.0 hpa

80 %

4.8 km/h aus 117

9.7 km/h aus W

6.1 C

9.0 C

9.1 C

9.3 C

0 W/m

0.00 mm

23:05

9.3 C

1024.0 hpa

80 %

6.4 km/h aus 117

9.7 km/h aus W

6.0 C

8.5 C

8.6 C

9.2 C

0 W/m

0.00 mm

23:10

9.2 C

1024.0 hpa

80 %

8.0 km/h aus 117

14.5 km/h aus WSW

5.9 C

8.1 C

8.1 C

9.2 C

0 W/m

0.00 mm

23:15

9.2 C

1024.3 hpa

81 %

8.0 km/h aus 115

11.3 km/h aus WSW

6.1 C

8.1 C

8.1 C

9.2 C

0 W/m

0.00 mm

23:20

9.2 C

1024.3 hpa

81 %

8.0 km/h aus 115

11.3 km/h aus W

6.1 C

8.1 C

8.1 C

9.2 C

0 W/m

0.00 mm

23:25

9.2 C

1024.3 hpa

81 %

8.0 km/h aus 117

12.9 km/h aus WSW

6.1 C

8.0 C

8.1 C

9.1 C

0 W/m

0.00 mm

23:30

9.2 C

1024.3 hpa

82 %

8.0 km/h aus 117

14.5 km/h aus W

6.3 C

8.1 C

8.1 C

9.2 C

0 W/m

0.00 mm

23:35

9.1 C

1024.3 hpa

82 %

8.0 km/h aus 116

14.5 km/h aus W

6.2 C

7.9 C

7.9 C

9.1 C

0 W/m

0.00 mm

23:40

9.1 C

1024.3 hpa

82 %

8.0 km/h aus 117

16.1 km/h aus W

6.2 C

7.9 C

7.9 C

9.1 C

0 W/m

0.00 mm

23:45

9.1 C

1024.3 hpa

82 %

6.4 km/h aus 114

12.9 km/h aus W

6.2 C

8.3 C

8.3 C

9.1 C

0 W/m

0.00 mm

23:50

9.1 C

1024.3 hpa

82 %

6.4 km/h aus 113

9.7 km/h aus W

6.1 C

8.3 C

8.3 C

9.1 C

0 W/m

0.00 mm

23:55

9.0 C

1024.3 hpa

82 %

6.4 km/h aus 117

9.7 km/h aus W

6.1 C

8.2 C

8.2 C

8.9 C

0 W/m

0.00 mm